User: anonymous   Login
Location: Hartman Creek State Park
(44.3257°N, 89.2134°W)
Time: 03:10:09
(UTC-05:00)
Language:

BREEZE-M DEB (TANK) - Orbit

View from above orbital plane
View from above orbital plane
View from above satellite
View from above satellite

Ground track
Ground track

The orbit data is extracted from the following two-line orbital elements,

1 29649U 06056B   16206.04950434  .00001395  00000-0  21967-3 0  9997
2 29649  49.4586 113.5048 5391969 316.7744  11.7183  4.98661552171381
Epoch (UTC): 24 July 2016 01:11:17
Eccentricity: 0.5391969
inclination: 49.4586°
perigee height: 290 km
apogee height: 15897 km
right ascension of ascending node: 113.5048°
argument of perigee: 316.7744°
revolutions per day: 4.98661552
mean anomaly at epoch: 11.7183°
orbit number at epoch: 17138

The dashed part of the orbit path shows where the satellite is in the earth's shadow,  

DLR